This demonstration page uses our WeatherBlox Daily Observations layout. Learn more.

Left ArrowRight Arrow

44.8408, -93.29828

Hourly Observations for May 26, 2022

Temp ( °F °C ) Dew Point ( °F °C ) Humidity (%) Winds ( mph kmh ) Pressure ( in mb ) Visibility ( mi km ) Precip ( " mm )
12:53 am 00:53 Cloudy 47 8.3 45 7.2 93 93 N 14 22 29.83 1010 10 16 0.01 0.25
1:53 am 01:53 Cloudy 47 8.3 45 7.2 93 93 N 10 17 29.82 1010 10 16 0.00 0.00
2:53 am 02:53 Cloudy 47 8.3 44 6.7 90 90 N 10 17 29.82 1010 10 16 0.00 0.00
3:53 am 03:53 Cloudy 47 8.3 44 6.7 90 90 N 12 19 29.82 1010 10 16 0.00 0.00
4:53 am 04:53 Cloudy 47 8.3 44 6.7 90 90 N 12 19 29.84 1010 10 16 0.00 0.00
5:09 am 05:09 Cloudy 47 8.3 44 6.7 90 90 N 8 13 29.84 1010 10 16 0.00 0.00
5:53 am 05:53 Cloudy 47 8.3 43 6.1 86 86 N 10 17 29.84 1011 10 16 0.00 0.00
6:53 am 06:53 Cloudy 47 8.3 43 6.1 86 86 N 7 11 29.86 1011 10 16 0.00 0.00
7:53 am 07:53 Cloudy 48 8.9 43 6.1 83 83 N 7 11 29.86 1011 10 16 0.00 0.00
8:53 am 08:53 Cloudy 48 8.9 43 6.1 83 83 N 8 13 29.87 1012 10 16 0.00 0.00
9:53 am 09:53 Cloudy 50 10 44 6.7 80 80 N 13 20 29.88 1012 10 16 0.00 0.00
10:53 am 10:53 Cloudy 51 10.6 44 6.7 77 77 NNE 13 20 29.88 1012 10 16 0.00 0.00
11:53 am 11:53 Cloudy 53 11.7 45 7.2 74 74 NE 9 15 29.88 1012 10 16 0.00 0.00
12:53 pm 12:53 Cloudy 55 12.8 46 7.8 72 72 N 12 19 29.87 1012 10 16 0.00 0.00
1:53 pm 13:53 Cloudy 55 12.8 45 7.2 69 69 N 13 20 29.88 1012 10 16 0.00 0.00
2:53 pm 14:53 Cloudy 57 13.9 46 7.8 67 67 NNE 10 17 29.87 1012 10 16 0.00 0.00
3:53 pm 15:53 Mostly Cloudy 60 15.6 46 7.8 60 60 N 14 22 29.87 1011 10 16 0.00 0.00
4:00 pm 16:00 Mostly Cloudy 61 16.1 46 7.8 58 58 N 14 22 29.85 1011 10 16 0.00 0.00
4:53 pm 16:53 Mostly Cloudy 60 15.6 46 7.8 60 60 NE 10 17 29.87 1012 10 16 0.00 0.00
5:53 pm 17:53 Cloudy 59 15 46 7.8 62 62 NE 9 15 29.88 1012 10 16 0.00 0.00
6:53 pm 18:53 Cloudy 59 15 46 7.8 62 62 NNE 10 17 29.88 1012 10 16 0.00 0.00
7:53 pm 19:53 Cloudy 58 14.4 46 7.8 65 65 N 8 13 29.88 1012 10 16 0.00 0.00
8:53 pm 20:53 Cloudy 57 13.9 47 8.3 69 69 N 6 9 29.89 1012 10 16 0.00 0.00
9:53 pm 21:53 Mostly Cloudy 56 13.3 46 7.8 70 70 N 5 7 29.90 1013 10 16 0.00 0.00
10:53 pm 22:53 Mostly Clear 54 12.2 45 7.2 72 72 N 5 7 29.91 1013 10 16 0.00 0.00
11:53 pm 23:53 Mostly Clear 50 10 46 7.8 86 86 Calm 29.91 1013 10 16 0.00 0.00

Powered by AerisWeather